FW8865 Weather Reports


time (UTC)temp
C
wind
direction
speed
KPH
gust
KPH
rain 1hr
cm
rain 24hr
cm
rain mn
cm
humidity
%
barometer
mb
20260508065216 12 0.0 0.0 0.00 0.00 0.00 24 1007.8
20260508064217 12 0.0 3.2 0.00 0.00 0.00 23 1007.6
20260508063216 12 0.0 1.6 0.00 0.00 0.00 23 1007.6
20260508062216 13 0.0 1.6 0.00 0.00 0.00 22 1007.2
20260508061216 13 0.0 0.0 0.00 0.00 0.00 22 1007.0
20260508060216 14 248 1.6 3.2 0.00 0.00 0.00 21 1007.0
20260508055216 14 248 1.6 4.8 0.00 0.00 0.00 21 1007.3
20260508054216 15 248 1.6 4.8 0.00 0.00 0.00 20 1006.8
20260508053216 14 270 1.6 3.2 0.00 0.00 0.00 20 1006.8
20260508052236 13 248 3.2 4.8 0.00 0.00 0.00 21 1006.7
20260508051216 13 248 1.6 3.2 0.00 0.00 0.00 21 1006.4
20260508050216 13 248 1.6 3.2 0.00 0.00 0.00 21 1006.1
20260508045216 15 270 1.6 3.2 0.00 0.00 0.00 20 1007.0
20260508044216 16 0.0 1.6 0.00 0.00 0.00 19 1006.6
20260508043216 16 270 3.2 3.2 0.00 0.00 0.00 19 1007.0
20260508042216 17 270 1.6 3.2 0.00 0.00 0.00 18 1006.6
20260508041216 17 270 3.2 3.2 0.00 0.00 0.00 18 1006.2
20260508040216 17 293 1.6 3.2 0.00 0.00 0.00 17 1006.2
20260508035216 18 293 3.2 6.4 0.00 0.00 0.00 17 1006.9
20260508034216 18 270 3.2 6.4 0.00 0.00 0.00 17 1006.4
20260508033216 18 293 3.2 4.8 0.00 0.00 0.00 16 1006.3
20260508032216 18 270 3.2 4.8 0.00 0.00 0.00 16 1006.2
20260508031236 18 270 3.2 4.8 0.00 0.00 0.00 16 1005.6
20260508030216 19 293 3.2 4.8 0.00 0.00 0.00 15 1005.5
20260508025236 19 293 3.2 4.8 0.00 0.00 0.00 15 1006.4
20260508024218 20 293 3.2 6.4 0.00 0.00 0.00 14 1005.6
20260508023218 20 293 3.2 4.8 0.00 0.00 0.00 14 1005.4
20260508022218 20 293 3.2 4.8 0.00 0.00 0.00 13 1005.5
20260508021218 20 293 3.2 4.8 0.00 0.00 0.00 13 1005.3
20260508020218 21 293 3.2 4.8 0.00 0.00 0.00 13 1005.1
20260508015218 21 293 3.2 4.8 0.00 0.00 0.00 12 1005.4
20260508014218 22 293 4.8 8.0 0.00 0.00 0.00 12 1005.3
20260508013238 22 293 4.8 6.4 0.00 0.00 0.00 12 1004.8
20260508012217 23 293 3.2 3.2 0.00 0.00 0.00 12 1004.8
20260508011217 23 270 3.2 6.4 0.00 0.00 0.00 13 1004.4
20260508010238 23 23 1.6 4.8 0.00 0.00 0.00 12 1004.0
20260508005219 23 338 1.6 4.8 0.00 0.00 0.00 13 1005.0
20260508004217 23 90 4.8 6.4 0.00 0.00 0.00 14 1004.9
20260508003217 23 0.0 3.2 0.00 0.00 0.00 13 1005.3
20260508002217 23 45 1.6 3.2 0.00 0.00 0.00 13 1005.0
20260508001237 23 0.0 3.2 0.00 0.00 0.00 13 1005.2
20260508000219 24 248 4.8 6.4 0.00 0.00 0.00 13 1004.9
20260507235217 24 225 3.2 6.4 0.00 0.00 0.00 13 1005.3
20260507234217 23 225 3.2 6.4 0.00 0.00 0.00 14 1005.3
20260507233217 23 0.0 1.6 0.00 0.00 0.00 13 1005.4
20260507232217 23 225 3.2 6.4 0.00 0.00 0.00 14 1005.5
20260507231217 24 270 1.6 3.2 0.00 0.00 0.00 13 1006.0
20260507230217 23 248 4.8 8.0 0.00 0.00 0.00 15 1005.7
20260507225217 23 135 1.6 4.8 0.00 0.00 0.00 15 1005.8
20260507224217 23 0.0 3.2 0.00 0.00 0.00 14 1006.0
20260507223219 23 225 1.6 4.8 0.00 0.00 0.00 13 1006.0
20260507222217 23 0.0 3.2 0.00 0.00 0.00 13 1006.2
20260507221217 23 203 1.6 3.2 0.00 0.00 0.00 13 1006.5
20260507220217 23 135 3.2 4.8 0.00 0.00 0.00 14 1006.7
20260507215217 23 270 1.6 4.8 0.00 0.00 0.00 14 1006.6
20260507214217 23 270 3.2 6.4 0.00 0.00 0.00 14 1006.8
20260507213217 22 203 3.2 4.8 0.00 0.00 0.00 14 1007.3
20260507212217 22 203 4.8 6.4 0.00 0.00 0.00 15 1007.3
20260507211217 22 203 3.2 4.8 0.00 0.00 0.00 16 1007.8
20260507210216 22 248 3.2 4.8 0.00 0.00 0.00 18 1007.7
20260507205217 21 135 3.2 6.4 0.00 0.00 0.00 19 1007.9
20260507204237 21 180 3.2 6.4 0.00 0.00 0.00 19 1008.0
20260507203216 21 135 3.2 4.8 0.00 0.00 0.00 19 1008.2
20260507202216 21 135 4.8 11.3 0.00 0.00 0.00 21 1008.4
20260507201217 20 0.0 1.6 0.00 0.00 0.00 21 1008.7
20260507200217 21 90 4.8 6.4 0.00 0.00 0.00 21 1009.0
20260507195217 20 158 3.2 6.4 0.00 0.00 0.00 21 1008.5
20260507194216 20 158 1.6 4.8 0.00 0.00 0.00 22 1008.8
20260507193216 20 135 3.2 4.8 0.00 0.00 0.00 23 1009.3
20260507192217 18 135 3.2 6.4 0.00 0.00 0.00 24 1009.5
20260507191216 18 203 6.4 11.3 0.00 0.00 0.00 25 1009.6
20260507190236 18 113 1.6 4.8 0.00 0.00 0.00 26 1010.2
20260507185216 17 113 1.6 4.8 0.00 0.00 0.00 26 1010.1
20260507184217 17 135 3.2 6.4 0.00 0.00 0.00 27 1010.1
20260507183216 17 180 1.6 3.2 0.00 0.00 0.00 26 1010.1
20260507182217 17 135 1.6 4.8 0.00 0.00 0.00 26 1010.6
20260507181216 17 135 3.2 4.8 0.00 0.00 0.00 27 1010.8
20260507180216 16 45 1.6 1.6 0.00 0.00 0.00 27 1011.1
20260507175216 16 338 3.2 4.8 0.00 0.00 0.00 30 1011.2
20260507174216 15 23 1.6 3.2 0.00 0.00 0.00 30 1011.4
20260507173216 15 90 3.2 4.8 0.00 0.00 0.00 30 1011.5
20260507172219 15 225 1.6 3.2 0.00 0.00 0.00 32 1011.7
20260507171216 14 90 3.2 4.8 0.00 0.00 0.00 35 1012.0
20260507170216 13 90 1.6 3.2 0.00 0.00 0.00 35 1012.4
20260507165216 13 68 4.8 6.4 0.00 0.00 0.00 35 1012.4
20260507164236 13 23 1.6 3.2 0.00 0.00 0.00 38 1012.3
20260507163236 13 68 3.2 4.8 0.00 0.00 0.00 41 1012.7
20260507162216 12 45 4.8 6.4 0.00 0.00 0.00 41 1013.1
20260507161216 12 68 3.2 6.4 0.00 0.00 0.00 44 1012.9
20260507160216 11 68 4.8 6.4 0.00 0.00 0.00 45 1013.3
20260507155216 11 68 6.4 8.0 0.00 0.00 0.00 47 1013.0
20260507154216 10 45 4.8 6.4 0.00 0.00 0.00 49 1012.7
20260507153217 10 45 3.2 6.4 0.00 0.00 0.00 51 1013.2
20260507152216 10 68 4.8 4.8 0.00 0.00 0.00 51 1013.3
20260507151216 9 45 3.2 4.8 0.00 0.00 0.00 53 1013.3
20260507150236 8 23 3.2 4.8 0.00 0.00 0.00 58 1013.7
20260507145215 8 45 4.8 6.4 0.00 0.00 0.00 56 1013.0
20260507144217 8 23 1.6 6.4 0.00 0.00 0.00 58 1013.5
20260507143217 8 23 4.8 6.4 0.00 0.00 0.00 59 1013.6
20260507142217 7 23 3.2 6.4 0.00 0.00 0.00 61 1013.6
20260507141218 6 23 4.8 6.4 0.00 0.00 0.00 63 1013.7
20260507140217 7 45 4.8 6.4 0.00 0.00 0.00 62 1014.2
20260507135218 6 0 1.6 4.8 0.00 0.00 0.00 62 1013.5
20260507134217 6 23 3.2 4.8 0.00 0.00 0.00 62 1013.6
20260507133217 6 0 1.6 6.4 0.00 0.00 0.00 61 1014.2
20260507132237 6 315 1.6 4.8 0.00 0.00 0.00 58 1014.0
20260507131217 5 23 1.6 4.8 0.00 0.00 0.00 59 1013.7
20260507130217 5 338 1.6 3.2 0.00 0.00 0.00 63 1013.7
20260507125217 4 0 1.6 1.6 0.00 0.00 0.00 68 1013.1
20260507124217 4 0.0 1.6 0.00 0.00 0.00 70 1012.8
20260507123217 3 0.0 1.6 0.00 0.00 0.00 70 1013.1
20260507122217 3 0.0 1.6 0.00 0.00 0.00 70 1012.9
20260507121237 3 0.0 1.6 0.00 0.00 0.00 69 1012.7
20260507120238 3 0.0 1.6 0.00 0.00 0.00 69 1013.1
20260507115217 3 0.0 3.2 0.00 0.00 0.00 67 1013.0
20260507114217 3 0.0 3.2 0.00 0.00 0.00 66 1013.0
20260507113237 4 315 1.6 3.2 0.00 0.00 0.00 65 1013.4
20260507112217 4 315 3.2 4.8 0.00 0.00 0.00 64 1013.3
20260507111217 4 315 1.6 4.8 0.00 0.00 0.00 63 1013.5
20260507110217 4 315 3.2 4.8 0.00 0.00 0.00 61 1012.9
20260507105217 4 315 1.6 4.8 0.00 0.00 0.00 59 1012.1
20260507104217 4 293 3.2 4.8 0.00 0.00 0.00 56 1012.1
20260507103217 5 315 1.6 4.8 0.00 0.00 0.00 55 1012.5
20260507102218 5 315 3.2 4.8 0.00 0.00 0.00 53 1012.4
20260507101217 5 315 1.6 3.2 0.00 0.00 0.00 52 1012.5
20260507100217 5 293 3.2 4.8 0.00 0.00 0.00 47 1012.8
20260507095257 5 315 3.2 4.8 0.00 0.00 0.00 46 1012.7
20260507094237 5 315 3.2 6.4 0.00 0.00 0.00 44 1012.8
20260507093238 6 0.0 1.6 0.00 0.00 0.00 42 1012.7
20260507092318 6 315 1.6 3.2 0.00 0.00 0.00 40 1012.6
20260507091217 6 0.0 1.6 0.00 0.00 0.00 39 1012.7
20260507090217 6 315 1.6 3.2 0.00 0.00 0.00 38 1012.7
20260507085217 6 315 1.6 3.2 0.00 0.00 0.00 39 1011.9
20260507084216 6 338 1.6 1.6 0.00 0.00 0.00 39 1011.9
20260507083219 6 338 1.6 3.2 0.00 0.00 0.00 39 1011.8
20260507082216 6 0.0 1.6 0.00 0.00 0.00 38 1012.1
20260507081236 6 0 1.6 4.8 0.00 0.00 0.00 38 1012.1
20260507080217 8 293 1.6 3.2 0.00 0.00 0.00 33 1011.4
20260507075217 8 293 3.2 6.4 0.00 0.00 0.00 33 1011.4
20260507074217 8 293 3.2 4.8 0.00 0.00 0.00 33 1011.6
20260507073216 8 315 3.2 4.8 0.00 0.00 0.00 33 1011.3
20260507072217 9 0.0 1.6 0.00 0.00 0.00 32 1011.2
20260507071216 10 293 3.2 4.8 0.00 0.00 0.00 31 1010.7
20260507070216 10 270 1.6 3.2 0.00 0.00 0.00 31 1010.8